| time (UTC) | temp F | wind direction | speed knots | gust knots | rain 1hr in | rain 24hr in | rain mn in | humidity % | barometer mb |
| 20260505130112 | 64 | 197 | 0.9 | 0.9 | 0.00 | 0.00 | 0.00 | 67 | 1017.9 |
| 20260505124601 | 63 | 219 | 0.9 | 0.9 | 0.00 | 0.00 | 0.00 | 69 | 1018.0 |
| 20260505124057 | 63 | 227 | 0.9 | 0.9 | 0.00 | 0.00 | 0.00 | 70 | 1017.8 |
| 20260505123554 | 62 | 212 | 1.7 | 1.7 | 0.00 | 0.00 | 0.00 | 70 | 1017.8 |
| 20260505123050 | 62 | 249 | 0.9 | 0.9 | 0.00 | 0.00 | 0.00 | 71 | 1017.9 |
| 20260505122547 | 62 | 188 | 0.9 | 0.9 | 0.00 | 0.00 | 0.00 | 71 | 1017.9 |
| 20260505122044 | 62 | 194 | 0.9 | 0.9 | 0.00 | 0.00 | 0.00 | 71 | 1017.8 |
| 20260505121541 | 61 | 208 | 0.9 | 0.9 | 0.00 | 0.00 | 0.00 | 72 | 1017.9 |
| 20260505121038 | 61 | 208 | 0.0 | 0.0 | 0.00 | 0.00 | 0.00 | 73 | 1017.7 |
| 20260505120534 | 61 | 211 | 0.9 | 0.9 | 0.00 | 0.00 | 0.00 | 74 | 1017.8 |
| 20260505120029 | 60 | 211 | 1.7 | 1.7 | 0.00 | 0.00 | 0.00 | 75 | 1017.5 |
| 20260505115524 | 60 | 211 | 0.0 | 0.0 | 0.00 | 0.00 | 0.00 | 75 | 1017.6 |
| 20260505115022 | 60 | 211 | 0.0 | 0.9 | 0.00 | 0.00 | 0.00 | 75 | 1017.6 |
| 20260505114519 | 59 | 211 | 0.0 | 0.0 | 0.00 | 0.00 | 0.00 | 76 | 1017.8 |
| 20260505114015 | 59 | 211 | 0.9 | 0.9 | 0.00 | 0.00 | 0.00 | 76 | 1017.7 |
| 20260505113512 | 59 | 211 | 0.9 | 0.9 | 0.00 | 0.00 | 0.00 | 77 | 1017.8 |
| 20260505113009 | 58 | 211 | 0.9 | 0.9 | 0.00 | 0.00 | 0.00 | 78 | 1017.7 |
| 20260505112505 | 57 | 211 | 0.9 | 0.9 | 0.00 | 0.00 | 0.00 | 79 | 1017.4 |
| 20260505112003 | 57 | 211 | 0.0 | 0.0 | 0.00 | 0.00 | 0.00 | 80 | 1017.5 |
| 20260505111502 | 57 | 211 | 0.0 | 0.0 | 0.00 | 0.00 | 0.00 | 81 | 1017.5 |
| 20260505110958 | 56 | 211 | 0.0 | 0.0 | 0.00 | 0.00 | 0.00 | 81 | 1017.5 |
| 20260505110455 | 56 | 211 | 0.0 | 0.0 | 0.00 | 0.00 | 0.00 | 81 | 1017.4 |
| 20260505101927 | 57 | 211 | 0.9 | 0.9 | 0.00 | 0.00 | 0.00 | 77 | 1017.1 |
| 20260505101427 | 58 | 211 | 0.0 | 0.0 | 0.00 | 0.00 | 0.00 | 76 | 1017.0 |
| 20260505100922 | 58 | 211 | 0.9 | 0.9 | 0.00 | 0.00 | 0.00 | 76 | 1017.0 |
| 20260505100420 | 58 | 211 | 0.0 | 0.0 | 0.00 | 0.00 | 0.00 | 76 | 1017.0 |
| 20260505095915 | 58 | 210 | 0.9 | 0.9 | 0.00 | 0.00 | 0.00 | 76 | 1016.7 |
| 20260505095413 | 58 | 210 | 0.0 | 0.0 | 0.00 | 0.00 | 0.00 | 75 | 1016.5 |
| 20260505094909 | 58 | 210 | 0.0 | 0.0 | 0.00 | 0.00 | 0.00 | 75 | 1016.7 |
| 20260505094406 | 58 | 210 | 0.0 | 0.9 | 0.00 | 0.00 | 0.00 | 75 | 1016.7 |
| 20260505093901 | 58 | 210 | 0.0 | 0.0 | 0.00 | 0.00 | 0.00 | 75 | 1016.8 |
| 20260505093359 | 58 | 210 | 0.0 | 0.9 | 0.00 | 0.00 | 0.00 | 75 | 1016.7 |
| 20260505092856 | 58 | 210 | 0.0 | 0.0 | 0.00 | 0.00 | 0.00 | 75 | 1016.6 |
| 20260505092354 | 58 | 210 | 0.9 | 0.9 | 0.00 | 0.00 | 0.00 | 75 | 1016.8 |
| 20260505091851 | 58 | 210 | 0.0 | 0.0 | 0.00 | 0.00 | 0.00 | 75 | 1016.7 |
| 20260505091349 | 58 | 210 | 0.0 | 0.0 | 0.00 | 0.00 | 0.00 | 74 | 1016.6 |
| 20260505090847 | 58 | 210 | 0.9 | 0.9 | 0.00 | 0.00 | 0.00 | 74 | 1016.5 |
| 20260505090345 | 58 | 210 | 0.9 | 0.9 | 0.00 | 0.00 | 0.00 | 74 | 1016.7 |
| 20260505085841 | 58 | 209 | 0.9 | 0.9 | 0.00 | 0.00 | 0.00 | 74 | 1016.6 |
| 20260505085340 | 58 | 207 | 0.9 | 0.9 | 0.00 | 0.00 | 0.00 | 74 | 1016.7 |
| 20260505084837 | 58 | 207 | 0.0 | 0.9 | 0.00 | 0.00 | 0.00 | 74 | 1016.7 |
| 20260505084335 | 58 | 206 | 0.0 | 0.0 | 0.00 | 0.00 | 0.00 | 74 | 1016.7 |
| 20260505083832 | 58 | 207 | 0.9 | 0.9 | 0.00 | 0.00 | 0.00 | 74 | 1016.7 |
| 20260505083330 | 58 | 206 | 0.0 | 0.0 | 0.00 | 0.00 | 0.00 | 73 | 1016.5 |
| 20260505082826 | 58 | 206 | 0.0 | 0.9 | 0.00 | 0.00 | 0.00 | 73 | 1016.3 |
| 20260505082322 | 58 | 207 | 0.0 | 0.0 | 0.00 | 0.00 | 0.00 | 72 | 1016.4 |
| 20260505081819 | 59 | 206 | 0.0 | 0.0 | 0.00 | 0.00 | 0.00 | 71 | 1016.6 |
| 20260505081316 | 59 | 206 | 0.0 | 0.0 | 0.00 | 0.00 | 0.00 | 71 | 1016.6 |
| 20260505080812 | 59 | 206 | 0.0 | 0.0 | 0.00 | 0.00 | 0.00 | 70 | 1016.4 |
| 20260505080308 | 59 | 206 | 0.9 | 0.9 | 0.00 | 0.00 | 0.00 | 70 | 1016.3 |
| 20260505075804 | 59 | 206 | 0.0 | 0.0 | 0.00 | 0.00 | 0.00 | 70 | 1016.3 |
| 20260505075304 | 59 | 206 | 1.7 | 1.7 | 0.00 | 0.00 | 0.00 | 69 | 1016.2 |
| 20260505074758 | 59 | 206 | 0.9 | 0.9 | 0.00 | 0.00 | 0.00 | 69 | 1016.1 |
| 20260505074256 | 59 | 206 | 0.9 | 0.9 | 0.00 | 0.00 | 0.00 | 69 | 1016.2 |
| 20260505073753 | 59 | 202 | 0.9 | 0.9 | 0.00 | 0.00 | 0.00 | 68 | 1016.2 |
| 20260505073251 | 59 | 202 | 0.9 | 0.9 | 0.00 | 0.00 | 0.00 | 68 | 1016.2 |
| 20260505072747 | 59 | 206 | 0.9 | 0.9 | 0.00 | 0.00 | 0.00 | 68 | 1016.2 |
| 20260505072243 | 59 | 212 | 0.9 | 0.9 | 0.00 | 0.00 | 0.00 | 68 | 1016.3 |
| 20260505071739 | 59 | 214 | 0.0 | 0.0 | 0.00 | 0.00 | 0.00 | 68 | 1016.2 |
| 20260505071236 | 59 | 214 | 0.9 | 0.9 | 0.00 | 0.00 | 0.00 | 68 | 1016.2 |
| 20260505070734 | 59 | 216 | 0.9 | 0.9 | 0.00 | 0.00 | 0.00 | 67 | 1016.1 |
| 20260505070230 | 59 | 216 | 1.7 | 1.7 | 0.00 | 0.00 | 0.00 | 67 | 1016.2 |
| 20260505065726 | 60 | 218 | 0.0 | 0.9 | 0.00 | 0.00 | 0.00 | 66 | 1016.3 |
| 20260505065223 | 60 | 221 | 0.9 | 0.9 | 0.00 | 0.00 | 0.00 | 66 | 1016.2 |
| 20260505064720 | 60 | 200 | 0.9 | 0.9 | 0.00 | 0.00 | 0.00 | 65 | 1016.3 |
| 20260505064218 | 60 | 198 | 0.0 | 0.0 | 0.00 | 0.00 | 0.00 | 65 | 1016.2 |
| 20260505063715 | 60 | 198 | 0.9 | 0.0 | 0.00 | 0.00 | 0.00 | 65 | 1016.1 |
| 20260505063211 | 60 | 191 | 0.9 | 0.9 | 0.00 | 0.00 | 0.00 | 65 | 1016.2 |
| 20260505062707 | 60 | 205 | 0.0 | 0.0 | 0.00 | 0.00 | 0.00 | 64 | 1016.3 |
| 20260505062206 | 60 | 205 | 0.9 | 0.9 | 0.00 | 0.00 | 0.00 | 65 | 1016.5 |
| 20260505061702 | 60 | 205 | 0.9 | 0.9 | 0.00 | 0.00 | 0.00 | 64 | 1016.4 |
| 20260505061200 | 60 | 205 | 0.0 | 0.0 | 0.00 | 0.00 | 0.00 | 64 | 1016.5 |
| 20260505060657 | 61 | 205 | 0.9 | 1.7 | 0.00 | 0.00 | 0.00 | 63 | 1016.6 |
| 20260505060154 | 61 | 205 | 0.0 | 0.0 | 0.00 | 0.00 | 0.00 | 63 | 1016.5 |
| 20260505055649 | 61 | 204 | 0.0 | 0.0 | 0.00 | 0.00 | 0.00 | 63 | 1016.6 |
| 20260505055146 | 61 | 193 | 0.0 | 0.0 | 0.00 | 0.00 | 0.00 | 63 | 1016.8 |
| 20260505054643 | 61 | 189 | 0.0 | 0.0 | 0.00 | 0.00 | 0.00 | 63 | 1016.7 |
| 20260505054141 | 61 | 188 | 0.0 | 0.0 | 0.00 | 0.00 | 0.00 | 62 | 1016.5 |
| 20260505053639 | 61 | 188 | 0.0 | 0.0 | 0.00 | 0.00 | 0.00 | 62 | 1016.6 |
| 20260505053135 | 61 | 188 | 0.0 | 0.0 | 0.00 | 0.00 | 0.00 | 62 | 1016.8 |
| 20260505052632 | 61 | 186 | 0.9 | 0.9 | 0.00 | 0.00 | 0.00 | 61 | 1016.7 |
| 20260505052129 | 61 | 186 | 0.0 | 0.0 | 0.00 | 0.00 | 0.00 | 61 | 1016.8 |
| 20260505051626 | 62 | 191 | 0.9 | 0.9 | 0.00 | 0.00 | 0.00 | 61 | 1016.8 |
| 20260505051124 | 62 | 183 | 0.9 | 0.9 | 0.00 | 0.00 | 0.00 | 60 | 1016.8 |
| 20260505050621 | 62 | 194 | 0.9 | 0.9 | 0.00 | 0.00 | 0.00 | 60 | 1016.8 |
| 20260505050120 | 62 | 201 | 0.9 | 0.9 | 0.00 | 0.00 | 0.00 | 60 | 1016.9 |
| 20260505041549 | 63 | 183 | 0.9 | 0.9 | 0.00 | 0.00 | 0.00 | 58 | 1017.1 |
| 20260505041047 | 63 | 182 | 0.9 | 0.0 | 0.00 | 0.00 | 0.00 | 58 | 1016.8 |
| 20260505040544 | 63 | 181 | 0.9 | 0.9 | 0.00 | 0.00 | 0.00 | 58 | 1016.9 |
| 20260505040041 | 63 | 177 | 0.9 | 0.9 | 0.00 | 0.00 | 0.00 | 58 | 1016.8 |
| 20260505035537 | 63 | 176 | 0.0 | 0.0 | 0.00 | 0.00 | 0.00 | 57 | 1017.0 |
| 20260505035034 | 64 | 184 | 0.9 | 0.9 | 0.00 | 0.00 | 0.00 | 57 | 1016.9 |
| 20260505034530 | 64 | 190 | 0.9 | 1.7 | 0.00 | 0.00 | 0.00 | 57 | 1017.1 |
| 20260505034027 | 64 | 188 | 0.9 | 0.9 | 0.00 | 0.00 | 0.00 | 57 | 1017.1 |
| 20260505033524 | 64 | 188 | 0.0 | 0.0 | 0.00 | 0.00 | 0.00 | 56 | 1017.2 |
| 20260505033022 | 64 | 188 | 0.9 | 0.9 | 0.00 | 0.00 | 0.00 | 55 | 1017.2 |
| 20260505032520 | 64 | 182 | 1.7 | 1.7 | 0.00 | 0.00 | 0.00 | 55 | 1016.9 |
| 20260505032016 | 65 | 196 | 0.9 | 0.9 | 0.00 | 0.00 | 0.00 | 55 | 1017.0 |
| 20260505031514 | 65 | 204 | 0.9 | 0.9 | 0.00 | 0.00 | 0.00 | 54 | 1016.9 |
| 20260505031010 | 65 | 200 | 1.7 | 2.6 | 0.00 | 0.00 | 0.00 | 53 | 1016.9 |
| 20260505030507 | 65 | 190 | 0.9 | 0.9 | 0.00 | 0.00 | 0.00 | 53 | 1017.1 |
| 20260505030002 | 66 | 182 | 0.9 | 0.9 | 0.00 | 0.00 | 0.00 | 52 | 1017.2 |
| 20260505025459 | 66 | 203 | 0.9 | 0.9 | 0.00 | 0.00 | 0.00 | 52 | 1017.1 |
| 20260505024958 | 66 | 191 | 0.9 | 0.9 | 0.00 | 0.00 | 0.00 | 52 | 1017.0 |
| 20260505024454 | 66 | 201 | 0.0 | 0.0 | 0.00 | 0.00 | 0.00 | 52 | 1017.1 |
| 20260505023952 | 66 | 190 | 0.9 | 0.9 | 0.00 | 0.00 | 0.00 | 52 | 1017.1 |
| 20260505023448 | 66 | 184 | 0.9 | 0.9 | 0.00 | 0.00 | 0.00 | 51 | 1017.0 |
| 20260505022946 | 67 | 192 | 0.9 | 0.9 | 0.00 | 0.00 | 0.00 | 50 | 1016.9 |
| 20260505022443 | 67 | 182 | 0.9 | 0.9 | 0.00 | 0.00 | 0.00 | 50 | 1016.8 |
| 20260505021941 | 67 | 198 | 0.9 | 0.9 | 0.00 | 0.00 | 0.00 | 50 | 1016.8 |
| 20260505021437 | 67 | 198 | 1.7 | 2.6 | 0.00 | 0.00 | 0.00 | 50 | 1016.6 |
| 20260505020932 | 67 | 179 | 0.9 | 0.9 | 0.00 | 0.00 | 0.00 | 49 | 1016.7 |
| 20260505020428 | 68 | 182 | 0.9 | 0.9 | 0.00 | 0.00 | 0.00 | 48 | 1016.9 |
| 20260505015925 | 68 | 183 | 0.9 | 1.7 | 0.00 | 0.00 | 0.00 | 48 | 1016.6 |
| 20260505015422 | 68 | 187 | 1.7 | 1.7 | 0.00 | 0.00 | 0.00 | 47 | 1016.7 |
| 20260505014920 | 68 | 195 | 0.9 | 0.9 | 0.00 | 0.00 | 0.00 | 46 | 1016.6 |
| 20260505014416 | 68 | 182 | 0.0 | 0.0 | 0.00 | 0.00 | 0.00 | 45 | 1016.4 |
| 20260505013913 | 69 | 182 | 0.0 | 0.9 | 0.00 | 0.00 | 0.00 | 44 | 1016.6 |
| 20260505013410 | 69 | 185 | 0.9 | 0.9 | 0.00 | 0.00 | 0.00 | 43 | 1016.4 |
| 20260505012908 | 69 | 169 | 1.7 | 2.6 | 0.00 | 0.00 | 0.00 | 42 | 1016.2 |
| 20260505012406 | 69 | 171 | 1.7 | 1.7 | 0.00 | 0.00 | 0.00 | 41 | 1016.2 |
| 20260505011902 | 69 | 173 | 1.7 | 1.7 | 0.00 | 0.00 | 0.00 | 39 | 1016.1 |
| 20260505011359 | 68 | 192 | 0.9 | 0.9 | 0.00 | 0.00 | 0.00 | 40 | 1016.1 |
| 20260505010855 | 69 | 192 | 0.0 | 0.0 | 0.00 | 0.00 | 0.00 | 40 | 1015.8 |
| 20260505010351 | 69 | 192 | 0.9 | 0.9 | 0.00 | 0.00 | 0.00 | 40 | 1015.8 |
| 20260505005847 | 69 | 192 | 0.0 | 0.0 | 0.00 | 0.00 | 0.00 | 38 | 1015.8 |
| 20260505005344 | 70 | 192 | 0.0 | 0.9 | 0.00 | 0.00 | 0.00 | 38 | 1015.9 |
| 20260505004842 | 70 | 192 | 0.0 | 0.0 | 0.00 | 0.00 | 0.00 | 37 | 1015.6 |
| 20260505004338 | 70 | 192 | 0.0 | 0.0 | 0.00 | 0.00 | 0.00 | 37 | 1015.9 |
| 20260505003835 | 71 | 192 | 0.0 | 0.0 | 0.00 | 0.00 | 0.00 | 36 | 1015.6 |
| 20260505003332 | 71 | 192 | 0.9 | 0.9 | 0.00 | 0.00 | 0.00 | 36 | 1015.6 |
| 20260505002828 | 71 | 192 | 0.0 | 0.0 | 0.00 | 0.00 | 0.00 | 35 | 1015.5 |
| 20260505002325 | 72 | 192 | 0.0 | 0.9 | 0.00 | 0.00 | 0.00 | 35 | 1015.3 |
| 20260505001824 | 72 | 192 | 0.0 | 0.0 | 0.00 | 0.00 | 0.00 | 34 | 1015.4 |
| 20260505001320 | 73 | 192 | 0.0 | 0.0 | 0.00 | 0.00 | 0.00 | 33 | 1015.2 |
| 20260505000818 | 73 | 192 | 0.0 | 0.0 | 0.00 | 0.00 | 0.00 | 32 | 1015.2 |
| 20260505000315 | 74 | 192 | 0.9 | 0.9 | 0.00 | 0.00 | 0.00 | 31 | 1015.2 |
| 20260504235812 | 74 | 192 | 0.0 | 0.0 | 0.00 | 0.00 | 0.00 | 30 | 1015.2 |
| 20260504235309 | 75 | 192 | 0.9 | 0.9 | 0.00 | 0.00 | 0.00 | 30 | 1015.1 |
| 20260504234805 | 75 | 192 | 0.9 | 0.9 | 0.00 | 0.00 | 0.00 | 29 | 1015.1 |
| 20260504234303 | 75 | 194 | 0.9 | 0.9 | 0.00 | 0.00 | 0.00 | 29 | 1015.0 |
| 20260504233759 | 76 | 190 | 1.7 | 1.7 | 0.00 | 0.00 | 0.00 | 28 | 1015.0 |
| 20260504233255 | 76 | 218 | 1.7 | 1.7 | 0.00 | 0.00 | 0.00 | 28 | 1015.1 |
| 20260504232752 | 76 | 178 | 1.7 | 1.7 | 0.00 | 0.00 | 0.00 | 28 | 1015.0 |
| 20260504232249 | 77 | 198 | 0.0 | 0.0 | 0.00 | 0.00 | 0.00 | 27 | 1015.0 |
| 20260504231746 | 77 | 189 | 1.7 | 1.7 | 0.00 | 0.00 | 0.00 | 27 | 1015.1 |
| 20260504231242 | 77 | 174 | 0.9 | 0.9 | 0.00 | 0.00 | 0.00 | 27 | 1015.1 |
| 20260504230738 | 78 | 174 | 0.9 | 0.9 | 0.00 | 0.00 | 0.00 | 25 | 1014.9 |
| 20260504230237 | 78 | 180 | 0.9 | 0.9 | 0.00 | 0.00 | 0.00 | 25 | 1015.1 |
| 20260504225735 | 79 | 177 | 0.9 | 0.9 | 0.00 | 0.00 | 0.00 | 25 | 1015.0 |
| 20260504225231 | 79 | 169 | 0.9 | 0.9 | 0.00 | 0.00 | 0.00 | 25 | 1014.9 |
| 20260504224729 | 81 | 215 | 2.6 | 2.6 | 0.00 | 0.00 | 0.00 | 24 | 1015.0 |
| 20260504224226 | 81 | 177 | 1.7 | 2.6 | 0.00 | 0.00 | 0.00 | 24 | 1015.1 |
| 20260504223722 | 82 | 178 | 0.9 | 0.9 | 0.00 | 0.00 | 0.00 | 24 | 1014.9 |
| 20260504223218 | 82 | 207 | 1.7 | 2.6 | 0.00 | 0.00 | 0.00 | 23 | 1015.1 |
| 20260504222715 | 81 | 172 | 1.7 | 1.7 | 0.00 | 0.00 | 0.00 | 24 | 1015.0 |
| 20260504222212 | 81 | 200 | 0.9 | 0.9 | 0.00 | 0.00 | 0.00 | 24 | 1015.0 |
| 20260504221709 | 82 | 202 | 1.7 | 1.7 | 0.00 | 0.00 | 0.00 | 23 | 1014.9 |
| 20260504221206 | 85 | 202 | 4.3 | 6.1 | 0.00 | 0.00 | 0.00 | 22 | 1014.8 |
| 20260504220702 | 84 | 217 | 0.9 | 0.9 | 0.00 | 0.00 | 0.00 | 23 | 1015.1 |
| 20260504220200 | 85 | 207 | 0.9 | 1.7 | 0.00 | 0.00 | 0.00 | 22 | 1015.0 |
| 20260504215656 | 85 | 173 | 0.9 | 0.9 | 0.00 | 0.00 | 0.00 | 22 | 1015.0 |
| 20260504215154 | 86 | 180 | 2.6 | 2.6 | 0.00 | 0.00 | 0.00 | 21 | 1014.6 |
| 20260504214649 | 85 | 182 | 1.7 | 1.7 | 0.00 | 0.00 | 0.00 | 21 | 1014.8 |
| 20260504214146 | 85 | 172 | 0.9 | 0.9 | 0.00 | 0.00 | 0.00 | 21 | 1014.8 |
| 20260504213643 | 86 | 179 | 0.9 | 0.9 | 0.00 | 0.00 | 0.00 | 21 | 1014.7 |
| 20260504213139 | 86 | 190 | 0.9 | 0.9 | 0.00 | 0.00 | 0.00 | 21 | 1015.0 |
| 20260504212636 | 85 | 206 | 0.9 | 1.7 | 0.00 | 0.00 | 0.00 | 21 | 1014.8 |
| 20260504212133 | 87 | 217 | 1.7 | 1.7 | 0.00 | 0.00 | 0.00 | 21 | 1014.8 |
| 20260504211630 | 87 | 187 | 1.7 | 1.7 | 0.00 | 0.00 | 0.00 | 20 | 1014.8 |
| 20260504211126 | 86 | 175 | 0.9 | 0.9 | 0.00 | 0.00 | 0.00 | 20 | 1014.7 |
| 20260504210624 | 85 | 199 | 0.9 | 0.9 | 0.00 | 0.00 | 0.00 | 18 | 1014.9 |
| 20260504210120 | 87 | 224 | 2.6 | 2.6 | 0.00 | 0.00 | 0.00 | 18 | 1015.0 |
| 20260504205618 | 87 | 203 | 1.7 | 1.7 | 0.00 | 0.00 | 0.00 | 19 | 1014.9 |
| 20260504205115 | 86 | 201 | 0.0 | 0.0 | 0.00 | 0.00 | 0.00 | 21 | 1014.9 |
| 20260504204614 | 85 | 218 | 0.9 | 0.9 | 0.00 | 0.00 | 0.00 | 20 | 1014.9 |
| 20260504204112 | 87 | 223 | 1.7 | 1.7 | 0.00 | 0.00 | 0.00 | 18 | 1014.8 |
| 20260504203611 | 87 | 200 | 0.9 | 0.9 | 0.00 | 0.00 | 0.00 | 19 | 1015.0 |
| 20260504203108 | 87 | 226 | 1.7 | 2.6 | 0.00 | 0.00 | 0.00 | 19 | 1015.0 |
| 20260504202603 | 86 | 193 | 0.9 | 1.7 | 0.00 | 0.00 | 0.00 | 20 | 1015.1 |
| 20260504202100 | 86 | 205 | 0.9 | 0.9 | 0.00 | 0.00 | 0.00 | 21 | 1015.2 |
| 20260504201556 | 86 | 193 | 1.7 | 2.6 | 0.00 | 0.00 | 0.00 | 20 | 1015.3 |
| 20260504201055 | 87 | 238 | 2.6 | 2.6 | 0.00 | 0.00 | 0.00 | 19 | 1015.2 |
| 20260504200550 | 86 | 141 | 0.0 | 0.0 | 0.00 | 0.00 | 0.00 | 21 | 1015.4 |
| 20260504200048 | 86 | 176 | 0.9 | 0.9 | 0.00 | 0.00 | 0.00 | 20 | 1015.4 |
| 20260504195544 | 87 | 231 | 0.9 | 1.7 | 0.00 | 0.00 | 0.00 | 19 | 1015.5 |
| 20260504195040 | 86 | 1 | 1.7 | 2.6 | 0.00 | 0.00 | 0.00 | 19 | 1015.5 |
| 20260504194537 | 87 | 232 | 1.7 | 1.7 | 0.00 | 0.00 | 0.00 | 19 | 1015.5 |
| 20260504194032 | 86 | 167 | 2.6 | 5.2 | 0.00 | 0.00 | 0.00 | 20 | 1015.7 |
| 20260504193529 | 87 | 285 | 1.7 | 2.6 | 0.00 | 0.00 | 0.00 | 19 | 1015.7 |
| 20260504193028 | 86 | 188 | 0.9 | 0.9 | 0.00 | 0.00 | 0.00 | 21 | 1015.7 |
| 20260504192526 | 85 | 213 | 0.9 | 0.9 | 0.00 | 0.00 | 0.00 | 23 | 1016.0 |
| 20260504192024 | 86 | 236 | 2.6 | 2.6 | 0.00 | 0.00 | 0.00 | 22 | 1015.8 |
| 20260504191521 | 86 | 184 | 0.9 | 1.7 | 0.00 | 0.00 | 0.00 | 21 | 1015.9 |
| 20260504191017 | 85 | 194 | 0.9 | 0.9 | 0.00 | 0.00 | 0.00 | 22 | 1016.0 |
| 20260504190513 | 83 | 229 | 1.7 | 1.7 | 0.00 | 0.00 | 0.00 | 22 | 1016.0 |
| 20260504190010 | 82 | 204 | 1.7 | 1.7 | 0.00 | 0.00 | 0.00 | 23 | 1016.1 |
| 20260504185507 | 83 | 244 | 3.5 | 5.2 | 0.00 | 0.00 | 0.00 | 20 | 1016.3 |
| 20260504185003 | 83 | 15 | 1.7 | 2.6 | 0.00 | 0.00 | 0.00 | 22 | 1016.2 |
| 20260504184458 | 83 | 232 | 0.0 | 0.0 | 0.00 | 0.00 | 0.00 | 23 | 1016.5 |
| 20260504183954 | 83 | 218 | 1.7 | 1.7 | 0.00 | 0.00 | 0.00 | 23 | 1016.6 |
| 20260504183452 | 83 | 242 | 1.7 | 1.7 | 0.00 | 0.00 | 0.00 | 21 | 1016.5 |
| 20260504182950 | 83 | 208 | 0.9 | 0.9 | 0.00 | 0.00 | 0.00 | 21 | 1016.6 |
| 20260504182446 | 83 | 77 | 0.9 | 0.9 | 0.00 | 0.00 | 0.00 | 20 | 1016.7 |
| 20260504181944 | 84 | 274 | 3.5 | 6.1 | 0.00 | 0.00 | 0.00 | 21 | 1016.8 |
| 20260504181441 | 82 | 198 | 0.9 | 0.9 | 0.00 | 0.00 | 0.00 | 22 | 1016.8 |
| 20260504180939 | 82 | 278 | 1.7 | 1.7 | 0.00 | 0.00 | 0.00 | 22 | 1016.8 |
| 20260504180438 | 82 | 213 | 0.9 | 1.7 | 0.00 | 0.00 | 0.00 | 22 | 1016.9 |
| 20260504175936 | 82 | 206 | 0.9 | 1.7 | 0.00 | 0.00 | 0.00 | 22 | 1016.9 |
| 20260504175432 | 82 | 209 | 0.9 | 0.9 | 0.00 | 0.00 | 0.00 | 24 | 1017.0 |
| 20260504174930 | 81 | 197 | 0.9 | 1.7 | 0.00 | 0.00 | 0.00 | 24 | 1017.0 |
| 20260504174427 | 81 | 188 | 0.9 | 0.9 | 0.00 | 0.00 | 0.00 | 23 | 1017.0 |
| 20260504173925 | 80 | 341 | 2.6 | 3.5 | 0.00 | 0.00 | 0.00 | 23 | 1017.1 |
| 20260504173421 | 79 | 215 | 1.7 | 1.7 | 0.00 | 0.00 | 0.00 | 25 | 1017.3 |
| 20260504172919 | 80 | 215 | 0.9 | 0.9 | 0.00 | 0.00 | 0.00 | 24 | 1017.2 |
| 20260504172414 | 79 | 38 | 0.0 | 0.0 | 0.00 | 0.00 | 0.00 | 26 | 1017.0 |
| 20260504171911 | 78 | 62 | 1.7 | 2.6 | 0.00 | 0.00 | 0.00 | 23 | 1017.3 |
| 20260504171408 | 79 | 255 | 0.9 | 0.9 | 0.00 | 0.00 | 0.00 | 25 | 1017.4 |
| 20260504170905 | 78 | 178 | 0.0 | 0.9 | 0.00 | 0.00 | 0.00 | 26 | 1017.5 |
| 20260504170401 | 78 | 240 | 0.9 | 0.9 | 0.00 | 0.00 | 0.00 | 25 | 1017.4 |
| 20260504160320 | 76 | 155 | 0.9 | 0.9 | 0.00 | 0.00 | 0.00 | 28 | 1018.1 |
| 20260504150745 | 72 | 126 | 0.9 | 0.9 | 0.00 | 0.00 | 0.00 | 35 | 1018.4 |
| 20260504150242 | 72 | 234 | 1.7 | 2.6 | 0.00 | 0.00 | 0.00 | 34 | 1018.5 |
| 20260504141211 | 70 | 128 | 0.0 | 0.0 | 0.00 | 0.00 | 0.00 | 42 | 1018.3 |
| 20260504140709 | 69 | 166 | 1.7 | 1.7 | 0.00 | 0.00 | 0.00 | 42 | 1018.4 |
| 20260504140209 | 69 | 219 | 0.9 | 0.9 | 0.00 | 0.00 | 0.00 | 44 | 1018.3 |